This demonstration page uses our WeatherBlox Daily Observations layout. Learn more.

Left ArrowRight Arrow

31.31129, -92.44514

Hourly Observations for August 23, 2016

Temp ( °F °C ) Dew Point ( °F °C ) Humidity (%) Winds ( mph kmh ) Pressure ( in mb ) Visibility ( mi km ) Precip ( " mm )
12:53 am 00:53 Clear 75 23.9 75 23.9 100 100 SE 3 6 30.14 1021 9 14 0.00 0.00
1:53 am 01:53 Clear 75 23.9 75 23.9 100 100 Calm 30.12 1020 9 14 0.00 0.00
2:53 am 02:53 Clear with Mist and Fog 74 23.3 74 23.3 100 100 Calm 30.12 1020 5 8 0.00 0.00
3:16 am 03:16 Mostly Clear with Mist and Fog 74 23.3 74 23.3 100 100 Calm 30.12 1020 3 4 0.00 0.00
3:24 am 03:24 Partly Cloudy with Mist and Fog 74 23.3 74 23.3 100 100 Calm 30.12 1020 2 2 0.00 0.00
3:27 am 03:27 Partly Cloudy with Mist and Fog 74 23.3 74 23.3 100 100 Calm 30.12 1020 3 5 0.00 0.00
3:53 am 03:53 Clear with Light Rain 73 22.8 73 22.8 100 100 SSE 5 7 30.12 1020 9 14 0.00 0.03
4:53 am 04:53 Clear 73 22.8 73 22.8 100 100 SE 6 9 30.13 1020 8 13 0.00 0.03
5:53 am 05:53 Clear 73 22.8 73 22.8 100 100 Calm 30.14 1021 8 13 0.00 0.00
6:53 am 06:53 Sunny 73 22.8 73 22.8 100 100 Calm 30.16 1022 7 11 0.00 0.00
7:53 am 07:53 Sunny 76 24.4 75 23.9 97 97 ESE 3 6 30.18 1022 10 16 0.00 0.00
8:53 am 08:53 Sunny 80 26.7 75 23.9 85 85 ESE 3 6 30.19 1022 10 16 0.00 0.00
9:53 am 09:53 Sunny 85 29.4 76 24.4 75 75 SSE 5 7 30.20 1023 10 16 0.00 0.00
10:53 am 10:53 Sunny 88 31.1 75 23.9 66 66 S 5 7 30.20 1023 10 16 0.00 0.00
11:53 am 11:53 Partly Cloudy 88 31.1 75 23.9 66 66 Calm 30.19 1023 10 16 0.00 0.00
12:53 pm 12:53 Mostly Cloudy 89 31.7 74 23.3 61 61 Calm 30.18 1022 10 16 0.00 0.00
1:53 pm 13:53 Mostly Sunny 91 32.8 75 23.9 59 59 Calm 30.16 1021 10 16 0.00 0.00
2:53 pm 14:53 Mostly Sunny 91 32.8 74 23.3 57 57 VRB 6 9 30.14 1021 10 16 0.00 0.00
3:53 pm 15:53 Mostly Sunny 92 33.3 74 23.3 56 56 undefined N/A 30.11 1020 10 16 0.00 0.00
4:53 pm 16:53 Sunny 92 33.3 74 23.3 56 56 SE 6 9 30.10 1019 10 16 0.00 0.00
5:53 pm 17:53 Sunny 92 33.3 73 22.8 54 54 SSE 3 6 30.09 1019 10 16 0.00 0.00
6:53 pm 18:53 Sunny 89 31.7 74 23.3 61 61 SSE 5 7 30.10 1019 10 16 0.00 0.00
7:53 pm 19:53 Clear 84 28.9 76 24.4 77 77 SSE 5 7 30.11 1020 10 16 0.00 0.00
8:53 pm 20:53 Mostly Clear 81 27.2 78 25.6 91 91 SSE 3 6 30.11 1020 10 16 0.00 0.00
9:53 pm 21:53 Clear 80 26.7 78 25.6 94 94 Calm 30.13 1020 10 16 0.00 0.00
10:53 pm 22:53 Clear 79 26.1 77 25 94 94 SE 5 7 30.14 1021 10 16 0.00 0.00
11:53 pm 23:53 Mostly Clear 78 25.6 76 24.4 93 93 SE 6 9 30.14 1021 10 16 0.00 0.00

Powered by AerisWeather